Weather History for Fairfield, CA

Change the Weather History Date:

Sunday, July 14, 2013

  Actual Average Record
Temperature  
Mean Temperature 71 °F -  
Max Temperature 89 °F 85 °F 101 °F (2014)
Min Temperature 54 °F 56 °F 53 °F (2012)
Cooling Degree Days 6    
Growing Degree Days 21 (Base 50)    
Moisture  
Dew Point 53 °F    
Average Humidity 63    
Maximum Humidity 91    
Minimum Humidity 27    
Precipitation  
Precipitation 0.00 in - - ()
Sea Level Pressure  
Sea Level Pressure 29.90 in    
Wind  
Wind Speed 20 mph (WSW)    
Max Wind Speed 28 mph    
Max Gust Speed 34 mph    
Visibility 10 miles    
Events      
Averages and records for this station are not official NWS values.
T = Trace of Precipitation, MM = Missing Value Source: NWS Daily Summary

Daily Weather History Graph

Daily Weather History Graph

Search for Another Location

Airport:

Trip Planner

Search our weather history database for the weather conditions in past years. The results will help you decide how hot, cold, wet, or windy it might be!

Date:

Astronomy

Jul. 14, 2013 Rise Set
Actual Time 5:56 AM PDT 8:31 PM PDT
Civil Twilight 5:25 AM PDT 9:01 PM PDT
Nautical Twilight 4:47 AM PDT 9:39 PM PDT
Astronomical Twilight 4:04 AM PDT 10:22 PM PDT
Moon 12:12 PM PDT (7/14) 11:52 PM PDT (7/14)
Length of Visible Light 15h 36m
Length of Day
14h 34m
Waxing Crescent, 36% of the Moon is Illuminated
Jul 14
Waxing Crescent
Jul 15
First Quarter
Jul 22
Full
Jul 29
Last Quarter
Aug 6
New

Hourly Weather History & Observations

Time (PDT) Temp. Heat Index Dew Point Humidity Pressure Visibility Wind Dir Wind Speed Gust Speed Precip Events Conditions
12:58 AM 59.4 °F - 53.1 °F 80% 29.90 in 10.0 mi WSW 20.7 mph - N/A   Clear
1:58 AM 59.0 °F - 52.9 °F 80% 29.90 in 10.0 mi WSW 20.7 mph - N/A   Clear
2:58 AM 57.4 °F - 52.9 °F 85% 29.89 in 10.0 mi WSW 20.7 mph - N/A   Clear
3:58 AM 57.0 °F - 53.2 °F 87% 29.89 in 10.0 mi WSW 20.7 mph - N/A   Clear
4:58 AM 56.5 °F - 52.7 °F 87% 29.90 in 10.0 mi WSW 18.4 mph - N/A   Clear
5:58 AM 54.9 °F - 52.3 °F 91% 29.92 in 10.0 mi WSW 20.7 mph 28.8 mph N/A   Clear
6:58 AM 55.6 °F - 53.1 °F 91% 29.94 in 10.0 mi WSW 18.4 mph - N/A   Clear
7:58 AM 59.2 °F - 52.7 °F 79% 29.94 in 10.0 mi WSW 24.2 mph - N/A   Clear
8:58 AM 64.0 °F - 52.9 °F 67% 29.95 in 10.0 mi WSW 21.9 mph - N/A   Clear
9:58 AM 68.0 °F - 53.6 °F 60% 29.96 in 10.0 mi WSW 17.3 mph - N/A   Clear
10:58 AM 71.6 °F - 53.1 °F 52% 29.96 in 10.0 mi WSW 16.1 mph - N/A   Clear
11:58 AM 75.6 °F - 53.2 °F 46% 29.95 in 10.0 mi WSW 12.7 mph - N/A   Clear
12:58 PM 80.8 °F - 52.2 °F 37% 29.94 in 10.0 mi WSW 13.8 mph - N/A   Partly Cloudy
1:58 PM 83.7 °F - 52.0 °F 33% 29.92 in 10.0 mi WSW 16.1 mph - N/A   Clear
2:58 PM 87.6 °F 85.5 °F 53.1 °F 31% 29.90 in 10.0 mi WSW 17.3 mph - N/A   Clear
3:58 PM 88.3 °F - 50.5 °F 27% 29.88 in 10.0 mi WSW 18.4 mph - N/A   Clear
4:58 PM 88.0 °F - 51.3 °F 28% 29.86 in 10.0 mi WSW 20.7 mph 26.5 mph N/A   Clear
5:58 PM 82.6 °F 81.7 °F 54.3 °F 38% 29.84 in 10.0 mi WSW 20.7 mph - N/A   Clear
6:58 PM 77.7 °F - 54.3 °F 44% 29.83 in 10.0 mi WSW 21.9 mph 27.6 mph N/A   Clear
7:58 PM 71.6 °F - 53.8 °F 53% 29.84 in 10.0 mi WSW 20.7 mph - N/A   Clear
8:58 PM 64.6 °F - 53.4 °F 67% 29.85 in 10.0 mi SW 20.7 mph - N/A   Clear
9:58 PM 60.8 °F - 54.1 °F 79% 29.86 in 10.0 mi WSW 27.6 mph 34.5 mph N/A   Clear
10:58 PM 59.0 °F - 53.2 °F 81% 29.85 in 10.0 mi WSW 21.9 mph 28.8 mph N/A   Clear
11:58 PM 56.8 °F - 54.0 °F 90% 29.85 in 10.0 mi WSW 25.3 mph 33.4 mph N/A   Clear